Home > Weather > Bernau bei Berlin > Past weeks

Flag for Germany Past Weather in Bernau bei Berlin, Brandenburg, Germany — Yesterday and Last 2 Weeks

Now
66 °F

Fog.


Feels Like: 66 °F
Forecast: 62 / 77 °F
Wind: 1 mph from North

Location: Berlin-Tegel

Current Time: Jul 25, 2016 at 6:27:25 AM

Latest Report: Jul 25, 2016 at 5:50 AM


Visibility: N/A

Pressure: 30.07 "Hg

Humidity: 83%

Dew Point: 61 °F

Location of Bernau bei BerlinLocation

Past Weather in Bernau bei Berlin — Graph

°F

Bernau bei Berlin Temperature Yesterday

Maximum temperature yesterday: 84 °F (at 3:20 PM)
Minimum temperature yesterday: 63 °F (at 4:50 AM)
Average temperature yesterday: 73 °F

High & Low Weather Summary for the Past Weeks

 TemperatureHumidityPressure
High88 °F (Jul 10, 4:20 PM)94% (Jul 13, 11:20 AM)30.24 "Hg (Jul 13, 11:20 AM)
Low48 °F (Jul 16, 5:20 AM)13% (Jul 22, 2:50 PM)29.71 "Hg (Jul 11, 2:50 AM)
Average69 °F60%30.01 "Hg
* Reported Jul 10 5:20 AM — Jul 25 5:20 AM, Bernau bei Berlin, Weather by CustomWeather, © 2016

Note: Actual official high and low records may vary slightly from our data, if they occured in-between our weather recording intervals... More about our weather records

Advertising

Bernau bei Berlin Weather History for the Previous 24 Hours

Scroll right to see more
 ConditionsComfort  
Time TempWeatherWind HumidityBarometerVisibility
5:20 AM
Mon, Jul 25
66 °FClear.2 mph83%30.07 "Hg10 mi
4:50 AM66 °FClear.1 mph83%30.07 "Hg10 mi
4:20 AM66 °FClear.1 mph83%30.07 "Hg10 mi
3:50 AM66 °FClear.2 mph78%30.07 "Hg10 mi
3:20 AM66 °FClear.2 mph78%30.07 "Hg10 mi
2:50 AM66 °FClear.1 mph78%30.07 "Hg10 mi
2:20 AM70 °FClear.2 mph73%30.07 "Hg10 mi
1:50 AM70 °FClear.3 mph69%30.07 "Hg10 mi
1:20 AM70 °FClear.3 mph69%30.07 "Hg10 mi
12:50 AM70 °FClear.5 mph69%30.07 "Hg10 mi
12:20 AM72 °FClear.5 mph65%30.07 "Hg10 mi
11:50 PM
Sun, Jul 24
72 °FClear.7 mph65%30.07 "Hg10 mi
11:20 PM73 °FClear.6 mph61%30.07 "Hg10 mi
10:50 PM72 °FClear.5 mph61%30.07 "Hg10 mi
10:20 PM75 °FClear.5 mph54%30.07 "Hg10 mi
9:50 PM77 °FSunny.3 mph47%30.07 "Hg10 mi
9:20 PM77 °FPassing clouds.3 mph47%30.07 "HgN/A
8:50 PM79 °FPassing clouds.5 mph42%30.04 "HgN/A
8:20 PM81 °FPassing clouds.7 mph39%30.04 "HgN/A
7:50 PM81 °FPassing clouds.6 mph39%30.04 "HgN/A
7:20 PM81 °FPassing clouds.6 mph39%30.04 "HgN/A
6:50 PM82 °FPassing clouds.6 mph37%30.04 "HgN/A
6:20 PM82 °FPassing clouds.6 mph35%30.04 "HgN/A
5:50 PM82 °FSunny.3 mph32%30.04 "Hg10 mi
5:20 PM84 °FPassing clouds.7 mph33%30.07 "HgN/A
4:50 PM82 °FPassing clouds.7 mph35%30.07 "HgN/A
4:20 PM84 °FPassing clouds.6 mph35%30.07 "HgN/A
3:50 PM81 °FSunny.3 mph39%30.07 "Hg10 mi
3:20 PM84 °FPassing clouds.5 mph37%30.07 "HgN/A
2:50 PM82 °FPassing clouds.5 mph40%30.07 "HgN/A
2:20 PM81 °FPassing clouds.5 mph45%30.09 "HgN/A
1:50 PM81 °FScattered clouds.6 mph45%30.09 "HgN/A
1:20 PM79 °FScattered clouds.6 mph48%30.09 "HgN/A
12:50 PM77 °FPartly sunny.6 mph51%30.09 "HgN/A
12:20 PM75 °FScattered clouds.7 mph57%30.09 "HgN/A
11:50 AM75 °FPartly sunny.8 mph54%30.09 "HgN/A
11:20 AM75 °FScattered clouds.7 mph57%30.09 "HgN/A
10:50 AM75 °FScattered clouds.6 mph57%30.09 "HgN/A
10:20 AM73 °FScattered clouds.6 mph57%30.09 "HgN/A
9:50 AM72 °FScattered clouds.6 mph61%30.09 "HgN/A
9:20 AM72 °FPassing clouds.6 mph65%30.09 "HgN/A
8:50 AM70 °FPassing clouds.7 mph69%30.09 "HgN/A
8:20 AM68 °FPassing clouds.7 mph69%30.09 "HgN/A
7:50 AM66 °FPassing clouds.5 mph78%30.09 "HgN/A
7:20 AM64 °FScattered clouds.6 mph83%30.09 "HgN/A
6:50 AM64 °FScattered clouds.3 mph78%30.09 "HgN/A
6:20 AM63 °FBroken clouds.5 mph83%30.09 "HgN/A
Weather by CustomWeather, © 2016

See weather overviewHow to use our weather pages